Regional Weather Roundup
Issued by NWS

Home | Current Version | Previous Version | Text Only | Print | Product List | Glossary Off
Versions: 1 2 3 4 5 6 7 8 9 10 11 12 13 14 15 16 17 18 19 20 21 22 23 24 25 26 27 28 29 30 31 32 33 34 35 36 37 38 39 40 41 42 43 44 45 46 47 48 49 50

000
ASUS43 KTOP 310008
RWRKS

WEATHER ROUNDUP FOR KANSAS
NATIONAL WEATHER SERVICE GOODLAND KS
700 PM CDT SAT JUL 30 2016

NOTE:  "FAIR" INDICATES FEW OR NO CLOUDS BELOW 12,000 FEET WITH NO
SIGNIFICANT WEATHER AND/OR OBSTRUCTIONS TO VISIBILITY.

KSZ001>006-013>018-027>032-041>047-310100-
NORTHWEST KANSAS

CITY           SKY/WX    TMP DP  RH WIND       PRES   REMARKS
GOODLAND       SUNNY     89  61  38 SE14      29.91F
6HR MIN TEMP:  83; 6HR MAX TEMP:  91;

HAYS           SUNNY     90  64  43 SE17      29.89S
HILL CITY      SUNNY     87  68  52 SE13      29.89S
6HR MIN TEMP:  85; 6HR MAX TEMP:  90;

RUSSELL        MOSUNNY   89  67  47 SE16      29.89S
6HR MIN TEMP:  84; 6HR MAX TEMP:  91;

$$

KSZ061>065-074>080-084>089-310100-
SOUTHWEST KANSAS

CITY           SKY/WX    TMP DP  RH WIND       PRES   REMARKS
DODGE CITY     SUNNY     90  65  43 S17G24    29.90S
6HR MIN TEMP:  86; 6HR MAX TEMP:  93;

ELKHART          N/A     92  63  38 S15         N/A
GARDEN CITY    SUNNY     91  66  43 SE14      29.88F
6HR MIN TEMP:  83; 6HR MAX TEMP:  91;

GREAT BEND     SUNNY     86  70  58 SE18      29.89F
LIBERAL        SUNNY     95  59  30 S15       29.88F
PRATT          SUNNY     86  64  48 S14       29.91S
6HR MIN TEMP:  81; 6HR MAX TEMP:  88;

$$

KSZ066>073-081>083-090>101-310100-
SOUTHEAST KANSAS

CITY           SKY/WX    TMP DP  RH WIND       PRES   REMARKS
CHANUTE        SUNNY     86  71  60 SE9       29.93S
6HR MIN TEMP:  84; 6HR MAX TEMP:  88; 6HR PCP: TRACE;

COFFEYVILLE    MOSUNNY   87  71  58 SE12      29.93R
6HR MIN TEMP:  83; 6HR MAX TEMP:  89; 6HR PCP: TRACE;

HUTCHINSON     SUNNY     87  66  49 SE13      29.92S
6HR MIN TEMP:  82; 6HR MAX TEMP:  89;

MEDICINE LODGE   N/A     90  68  48 S14G22    29.88F
NEWTON         SUNNY     85  70  60 SE10      29.93F
PARSONS        PTSUNNY   85  69  58 CALM      29.95R
6HR MIN TEMP:  83; 6HR MAX TEMP:  89;

WICHITA INTL   MOSUNNY   87  69  54 E12       29.91S
6HR MIN TEMP:  82; 6HR MAX TEMP:  90;

WICHITA JABRA  SUNNY     86  68  54 SE13      29.92S
6HR MIN TEMP:  79; 6HR MAX TEMP:  88;

WICHITA MCCONL SUNNY     87  68  54 SE8       29.91F
WINFIELD       SUNNY     87  70  56 S12       29.92F
6HR MIN TEMP:  80; 6HR MAX TEMP:  89;

$$

KSZ007>012-019>026-033>040-048>060-102>105-310100-
NORTHEAST KANSAS

CITY           SKY/WX    TMP DP  RH WIND       PRES   REMARKS
CONCORDIA      SUNNY     82  69  64 SE13      29.92F
6HR MIN TEMP:  75; 6HR MAX TEMP:  84;

EMPORIA        SUNNY     85  69  58 SE10      29.92F
6HR MIN TEMP:  83; 6HR MAX TEMP:  88;

LAWRENCE       SUNNY     82  72  71 E6        29.93S
6HR MIN TEMP:  69; 6HR MAX TEMP:  87; 6HR PCP:  0.08;

MANHATTAN      SUNNY     82  70  66 E10       29.91F
6HR MIN TEMP:  76; 6HR MAX TEMP:  87;

MARYSVILLE     SUNNY     81  70  69 E9        29.93F
OLATHE IND     SUNNY     84  68  58 E5        29.95R
6HR MIN TEMP:  79; 6HR MAX TEMP:  88; 6HR PCP:  0.09;

OLATHE EXE     SUNNY     84  64  50 E3        29.95R
6HR MIN TEMP:  77; 6HR MAX TEMP:  85; 6HR PCP:  0.02;

SALINA         MOSUNNY   89  68  49 SE14      29.90S
6HR MIN TEMP:  85; 6HR MAX TEMP:  92; 6HR PCP: TRACE;

TOPEKA BILLARD SUNNY     83  69  62 E6        29.93S
6HR MIN TEMP:  72; 6HR MAX TEMP:  86; 6HR PCP:  0.01;

TOPEKA FORBES  SUNNY     85  69  58 E6        29.93F
6HR MIN TEMP:  76; 6HR MAX TEMP:  87;

$$




USA.gov is the U.S. government's official web portal to all federal, state and local government web resources and services.